Tracking 19562 objects as of 22-Mar-2019
HD Live streaming from Space Station
objects crossing your sky now

COSMOS 1020

Track COSMOS 1020 now!
10-day predictions
COSMOS 1020 is classified as:


NORAD ID: 10937
Int'l Code: 1978-056H
Perigee: 1,413.8 km
Apogee: 1,491.9 km
Inclination: 74.0 °
Period: 114.8 minutes
Semi major axis: 7823 km
RCS: 0.679 m2 (medium)
Launch date: June 7, 1978
Source: Commonwealth of Independent States (former USSR) (CIS)
Launch site: PLESETSK MISSILE AND SPACE COMPLEX (PKMTR)
aabbcc
Your satellite tracking list
Your tracking list is empty




NASA's NSSDC Master Catalog

Two Line Element Set (TLE):
1 10937U 78056H   19079.89145726 -.00000015  00000-0  96657-5 0  9999
2 10937  74.0251  71.9103 0049930 220.7677 138.9636 12.54512145867904
Source of the keplerian elements: AFSPC